Regional Weather Roundup
Issued by NWS

Home | Current Version | Previous Version | Graphics & Text | Print | Product List | Glossary On
Versions: 1 2 3 4 5 6 7 8 9 10 11 12 13 14 15 16 17 18 19 20 21 22 23 24 25 26 27 28 29 30 31 32 33 34 35 36 37 38 39 40 41 42 43 44 45 46 47 48 49 50
000
ASUS45 KABQ 010610
RWRNM
WEATHER ROUNDUP FOR NEW MEXICO
NATIONAL WEATHER SERVICE ALBUQUERQUE NM
1100 PM MST SAT JAN 31 2015

NOTE: "FAIR" MEANS FEW OR NO CLOUDS BELOW 12,000 FEET AGL WITH NO
       SIGNIFICANT WEATHER OR OBSTRUCTIONS TO VISION.

      THIS PRODUCT IS RELEASED AS TWO VERSIONS.  ONE VERSION NEAR
      THE TOP OF THE HOUR CONTAINING PRELIMINARY DATA FROM ALBUQUERQUE
      AND OTHER STATIONS.  A FINAL VERSION WITH ADDITIONAL DATA IS
      ISSUED ABOUT 10 MINUTES AFTER THE HOUR.

NMZ501-503-504-510>518-010700-
NORTHWEST PLATEAU/NORTHCENTRAL MOUNTAINS

CITY           SKY/WX    TMP DP  RH WIND       PRES   REMARKS
FARMINGTON     PTCLDY    33  31  92 SW8       29.98R WCI  26
6HR MIN TEMP:  33; 6HR MAX TEMP:  38;

LOS ALAMOS     CLOUDY    31  31 100 CALM      29.95R
SANTA FE       FOG       32  30  92 W8        29.93R VSB 1/4 WCI  25
6HR MIN TEMP:  32; 6HR MAX TEMP:  33;

TAOS           CLOUDY    30  28  93 NW7       29.95R VSB 1/2 WCI  23
ANGEL FIRE     FAIR      29  26  88 W7          N/A  WCI  21

$$
NMZ402-403-502-505>509-010700-
WESTCENTRAL MOUNTAINS/SOUTHWEST MOUNTAINS

CITY           SKY/WX    TMP DP  RH WIND       PRES   REMARKS
GALLUP         MOCLDY    32  29  88 N3        30.02R
6HR MIN TEMP:  31; 6HR MAX TEMP:  37;

GRANTS         CLOUDY    34  32  93 N9        30.00R WCI  27
SILVER CITY    CLOUDY    41  39  93 NW7       29.99R

$$
NMZ407-409-411-412-010700-
SOUTHERN DESERTS

CITY           SKY/WX    TMP DP  RH WIND       PRES   REMARKS
LORDSBURG      FAIR      39  37  93 CALM      29.97R
DEMING         CLEAR     42  40  92 W9        29.96R
6HR MIN TEMP:  41; 6HR MAX TEMP:  51; 6HR PCP: TRACE;

LAS CRUCES     CLEAR     42  41  97 W7        29.96R
HOLLOMAN AFB   PTCLDY    44  44 100 CALM      29.91S
ALAMOGORDO     CLOUDY    46  43  87 S3        29.93S
T OR C         MOCLDY    43  42  97 N3        29.93R
6HR MIN TEMP:  42; 6HR MAX TEMP:  50; 6HR PCP: TRACE;


$$
NMZ519>523-010700-
CENTRAL VALLEYS/CENTRAL HIGHLANDS

CITY           SKY/WX    TMP DP  RH WIND       PRES   REMARKS
ALBUQUERQUE    MOCLDY    38  33  82 N10       29.98R WCI  31
6HR MIN TEMP:  37; 6HR MAX TEMP:  41;

DOUBLE EAGLE   PTCLDY    30  28  91 CALM      29.98R
MORIARTY ARPT  FAIR      37  31  78 CALM      29.94R
6HR MIN TEMP:  33; 6HR MAX TEMP:  40;

CLINES CORNERS PTCLDY    32  30  92 NW18      29.88F WCI  20
6HR MIN TEMP:  32; 6HR MAX TEMP:  35;

BELEN          CLOUDY    37  37  98 NE6       29.97R WCI  33
6HR MIN TEMP:  33; 6HR MAX TEMP:  42;

SOCORRO        MOCLDY    38  38  97 N3        29.96R
6HR MIN TEMP:  37; 6HR MAX TEMP:  47;


$$
NMZ524>526-539-540-010700-
SOUTHCENTRAL MOUNTAINS

CITY           SKY/WX    TMP DP  RH WIND       PRES   REMARKS
RUIDOSO        CLOUDY    39  36  87 NW9       29.95S WCI  33

$$
NMZ527>531-010700-
NORTHEAST HIGHLANDS/NORTHEAST PLAINS

CITY           SKY/WX    TMP DP  RH WIND       PRES   REMARKS
LAS VEGAS      PTCLDY    29  25  85 NW7       29.86R WCI  22
6HR MIN TEMP:  28; 6HR MAX TEMP:  38;

RATON          CLEAR     31  28  89 NE9       29.85R WCI  23
6HR MIN TEMP:  24; 6HR MAX TEMP:  33;

CLAYTON        CLOUDY    36  34  92 NW9       29.84R WCI  29
6HR MIN TEMP:  35; 6HR MAX TEMP:  40; 6HR PCP:  0.03;


$$
NMZ532>537-010700-
EASTCENTRAL PLAINS

CITY           SKY/WX    TMP DP  RH WIND       PRES   REMARKS
TUCUMCARI      FOG       34  33  96 N7        29.83R VSB 1   WCI  28
6HR MIN TEMP:  34; 6HR MAX TEMP:  43;

CANNON AFB     NOT AVBL
CLOVIS AIRPORT CLOUDY    39  37  93 W10       29.83S WCI  32

$$
NMZ028-029-538-010700-
SOUTHEAST PLAINS

CITY           SKY/WX    TMP DP  RH WIND       PRES   REMARKS
ROSWELL        CLOUDY    44  42  93 CALM      29.89R FOG
6HR MIN TEMP:  44; 6HR MAX TEMP:  46;

ARTESIA        CLOUDY    43  43 100 CALM      29.90S FOG
CARLSBAD       FOG       41  39  93 S3        29.88S VSB 1
6HR MIN TEMP:  41; 6HR MAX TEMP:  49;

HOBBS          FOG       45  45 100 W9        29.90S VSB 1/4


$$


USA.gov is the U.S. government's official web portal to all federal, state and local government web resources and services.